Regional Weather Roundup
Issued by NWS

Home | Current Version | Previous Version | Graphics & Text | Print | Product List | Glossary On
Versions: 1 2 3 4 5 6 7 8 9 10 11 12 13 14 15 16 17 18 19 20 21 22 23 24 25 26 27 28 29 30 31 32 33 34 35 36 37 38 39 40 41 42 43 44 45 46 47 48 49 50
000
ASUS45 KBOU 280607
RWRCO

WEATHER ROUNDUP FOR COLORADO
NATIONAL WEATHER SERVICE DENVER/BOULDER CO
1200 AM MDT THU MAY 28 2015

NOTE: "FAIR" INDICATES FEW OR NO CLOUDS BELOW 12000 FEET WITH NO
SIGNIFICANT WEATHER AND/OR OBSTRUCTIONS TO VISIBILITY.

COZ001>005-013-030-031-280700-
...NORTHWEST COLORADO...

CITY           SKY/WX    TMP DP  RH WIND       PRES   REMARKS
CRAIG          CLOUDY    52  42  69 NW7       30.18F
HAYDEN         CLOUDY    48  39  71 CALM      30.20R
MEEKER         CLOUDY    49  43  80 N5        30.21F
MOUNT WERNER   NOT AVBL
STEAMBOAT SPGS CLOUDY    47  43  83 S7        30.20S
WALDEN         CLOUDY    45  37  76 S9        30.25R
$$

COZ006>008-011-280700-
...WEST CENTRAL VALLEYS...

CITY           SKY/WX    TMP DP  RH WIND       PRES   REMARKS
GRAND JUNCTION CLOUDY    54  49  83 W6        30.13F
MONTROSE       PTCLDY    55  42  61 NE5       30.16F
EAGLE          CLOUDY    52  45  76 E5        30.22S
RIFLE          MOCLDY    52  46  80 S7        30.18S
DELTA          MOCLDY    62  42  47 SW12G17   30.12R
NUCLA          MOCLDY    55  41  58 NW7       30.17R
$$

COZ017>023-064>068-280700-
...SOUTHWEST COLORADO...

CITY           SKY/WX    TMP DP  RH WIND       PRES   REMARKS
DURANGO        PTCLDY    53  38  56 N9        30.15S
CORTEZ         CLEAR     50  42  74 E5        30.11S
PAGOSA SPRINGS PTCLDY    47  33  57 CALM      30.22S
TELLURIDE      PTCLDY    44  35  73 SE8       30.31F
WOLF CREEK PAS NOT AVBL
$$

COZ009-010-012-014-032>034-037-058>063-280700-
...CENTRAL COLORADO...

CITY           SKY/WX    TMP DP  RH WIND       PRES   REMARKS
ASPEN          PTCLDY    44  36  73 CALM      30.24R
BUENA VISTA    PTCLDY    44  36  71 CALM      30.24R
COPPER MTN     MOCLDY    37  27  65 SW12G17   30.42S
BERTHOUD PASS  FAIR      32  23  69 NW17G29   30.43S WCI  21
COTTONWOOD PAS PTCLDY    46  30  53 CALM      30.31S
GUNNISON       PTCLDY    43  34  70 N3        30.29S
KREMMLING      CLOUDY    50  39  66 CALM      30.24S
LEADVILLE      MOCLDY    37  31  78 N6        30.30F
MONARCH PASS   PTCLDY    34  28  80 W22       30.52S WCI  22
SALIDA         PTCLDY    45  37  76 W3        30.29S
SUNLIGHT       MOCLDY    36  36 100 CALM      30.39F
WILKERSON PASS PTCLDY    37  27  65 W7        30.40S
$$

COZ069>075-280700-
...SAN LUIS VALLEY/SANGRE DE CRISTO MOUNTAINS...

CITY           SKY/WX    TMP DP  RH WIND       PRES   REMARKS
ALAMOSA        PTCLDY    44  37  76 W5        30.21S
LA VETA PASS   MOCLDY   N/A N/A N/A MISG      30.36R
SAGUACHE       PTCLDY    45  36  70 NW9       30.23F
$$

COZ035-036-038>040-280700-
...NORTHERN COLORADO FRONT RANGE...

CITY           SKY/WX    TMP DP  RH WIND       PRES   REMARKS
DENVER INTL AP LGT RAIN  63  40  42 NW9G21    30.06F
DMNS CITY PARK   N/A     58  46  63 S3        30.06S
AURORA         MOCLDY    57  46  66 W6        30.08F
FRONT RANGE AP MOCLDY    61  46  59 MISG      30.08F
ERIE MUNI ARPT MOCLDY    58  46  64 CALM      30.06S
BOULDER MUN AP MOCLDY    59  45  58 N7        30.06F
CENTENNIAL     PTCLDY    56  44  64 SW8       30.09S
BROOMFIELD     MOCLDY    61  37  41 W10       30.09S
FORT COLLINS   MOCLDY    57  52  82 N6        30.08R
LONGMONT       MOCLDY    60  49  67 NW3       30.08S
$$

COZ041-046-047-076>085-087-088-280700-
...PIKES PEAK/PALMER DIVIDE AND SOUTHERN FOOTHILLS...

CITY           SKY/WX    TMP DP  RH WIND       PRES   REMARKS
COLO. SPRINGS  MOCLDY    57  42  57 E5        30.13R
A. F. ACADEMY  MOCLDY    58  38  47 N10       30.13F
ELLICOTT       MOCLDY   N/A N/A N/A N5        30.12R
FALCON         MOCLDY    56  36  45 W9        30.16S
FORT CARSON    MOCLDY    54  43  66 N7        30.10R
LIMON          PTCLDY    52  52 100 SE12      30.11R
MONUMENT HILL  PTCLDY    50  43  76 MISG      30.17S
TRINIDAD       MOCLDY    51  46  83 W10       30.11S
$$

COZ042>045-048>051-090-091-280700-
...NORTHEAST COLORADO...

CITY           SKY/WX    TMP DP  RH WIND       PRES   REMARKS
GREELEY ARPT   PTCLDY    57  55  94 NE6       30.04F
AKRON          LGT RAIN  57  56  96 SE20G25   30.06S
BURLINGTON     MOCLDY    56  53  90 SE18      30.08F
WRAY           MOCLDY    57  55  91 S5        30.05F
STERLING       MOCLDY    59  55  88 S13G20    30.03S
HOLYOKE        MOCLDY    59  54  82 S9        30.06S
FORT MORGAN    MOCLDY    58  54  88 E3        30.06R
$$

COZ086-089-092>099-280700-
...SOUTHEAST COLORADO...

CITY           SKY/WX    TMP DP  RH WIND       PRES   REMARKS
PUEBLO         MOCLDY    57  54  89 CALM      30.04S
LA JUNTA       CLOUDY    63  52  67 SE7       30.04R
LAMAR          MOCLDY    61  53  75 SE17G25   30.01S
SPRINGFIELD      N/A     57  55  93 SE15      30.10R
$$



USA.gov is the U.S. government's official web portal to all federal, state and local government web resources and services.